DW3766 Weather Reports


Display with metric or nautical units.
time (UTC)temp
F
wind
direction
speed
MPH
gust
MPH
rain 1hr
in
rain 24hr
in
rain mn
in
humidity
%
barometer
mb
20260905043701 80 117 0.0 2.0 0.00 0.00 0.00 1014.0
20260905043130 80 117 1.0 3.0 0.00 0.00 0.00 1013.9
20260905042707 80 110 1.0 5.0 0.00 0.00 0.00 1013.9
20260905042140 80 144 2.0 5.0 0.00 0.00 0.00 1014.1
20260905041616 80 130 0.0 0.0 0.00 0.00 0.00 1014.0
20260905041145 80 129 0.0 0.0 0.00 0.00 0.00 1014.0
20260905040701 80 130 0.0 0.0 0.00 0.00 0.00 1013.9
20260905040208 80 130 0.0 0.0 0.00 0.00 0.00 1014.0
20260905035656 81 130 0.0 1.0 0.00 0.00 0.00 1014.0
20260905035132 81 130 0.0 2.0 0.00 0.00 0.00 1013.9
20260905034641 81 130 1.0 2.0 0.00 0.00 0.00 1013.9
20260905034117 81 179 0.0 1.0 0.00 0.00 0.00 1013.8
20260905033626 81 179 0.0 1.0 0.00 0.00 0.00 1013.8
20260905033201 81 179 0.0 4.0 0.00 0.00 0.00 1013.8
20260905032632 81 122 1.0 4.0 0.00 0.00 0.00 1013.7
20260905032205 81 111 1.0 4.0 0.00 0.00 0.00 1013.7
20260905031634 82 93 0.0 1.0 0.00 0.00 0.00 1013.6
20260905031201 82 93 0.0 0.0 0.00 0.00 0.00 1013.6
20260905030638 82 93 0.0 0.0 0.00 0.00 0.00 1013.6
20260905030209 82 93 0.0 0.0 0.00 0.00 0.00 1013.6
20260905025723 82 93 0.0 0.0 0.00 0.00 0.00 1013.4
20260905025132 83 93 0.0 0.0 0.00 0.00 0.00 1013.4
20260905024637 83 93 0.0 0.0 0.00 0.00 0.00 1013.3
20260905024116 83 93 0.0 1.0 0.00 0.00 0.00 1013.2
20260905023644 83 93 0.0 2.0 0.00 0.00 0.00 1013.2
20260905023201 83 93 1.0 4.0 0.00 0.00 0.00 1013.1
20260905022630 83 127 1.0 5.0 0.00 0.00 0.00 1013.0
20260905022116 83 119 1.0 7.0 0.00 0.00 0.00 1012.9
20260905021652 83 84 3.0 7.0 0.00 0.00 0.00 1012.9
20260905021218 84 103 3.0 6.0 0.00 0.00 0.00 1012.9
20260905020633 84 80 3.0 6.0 0.00 0.00 0.00 1012.8
20260905020212 84 106 3.0 6.0 0.00 0.00 0.00 1012.8
20260905015620 84 90 2.0 7.0 0.00 0.00 0.00 1012.8
20260905015146 84 127 3.0 7.0 0.00 0.00 0.00 1012.8
20260905014623 85 119 3.0 6.0 0.00 0.00 0.00 1012.7
20260905014135 85 113 2.0 6.0 0.00 0.00 0.00 1012.7
20260905013702 85 95 2.0 6.0 0.00 0.00 0.00 1012.6
20260905013136 85 94 2.0 9.0 0.00 0.00 0.00 1012.6
20260905012646 86 115 5.0 9.0 0.00 0.00 0.00 1012.6
20260905012152 86 98 4.0 9.0 0.00 0.00 0.00 1012.5
20260905011627 86 112 0.0 2.0 0.00 0.00 0.00 1012.4
20260905011155 87 112 1.0 2.0 0.00 0.00 0.00 1012.5
20260905010632 87 112 0.0 2.0 0.00 0.00 0.00 1012.5
20260905010201 87 112 0.0 2.0 0.00 0.00 0.00 1012.3
20260905005641 87 112 1.0 4.0 0.00 0.00 0.00 1012.3
20260905005209 88 112 1.0 4.0 0.00 0.00 0.00 1012.3
20260905004625 88 117 2.0 5.0 0.00 0.00 0.00 1012.2
20260905004153 88 128 2.0 7.0 0.00 0.00 0.00 1012.2
20260905003622 88 121 3.0 7.0 0.00 0.00 0.00 1012.2
20260905003158 89 44 4.0 9.0 0.00 0.00 0.00 1012.2
20260905002624 89 128 6.0 9.0 0.00 0.00 0.00 1012.1
20260905002156 90 111 5.0 8.0 0.00 0.00 0.00 1012.0
20260905001705 90 119 4.0 7.0 0.00 0.00 0.00 1012.1
20260905001127 90 140 3.0 7.0 0.00 0.00 0.00 1012.0
20260905000656 91 127 3.0 7.0 0.00 0.00 0.00 1011.9
20260905000207 91 141 4.0 7.0 0.00 0.00 0.00 1011.8
20260904235637 91 159 4.0 10.0 0.00 0.00 0.00 1011.7
20260904235236 91 137 6.0 10.0 0.00 0.00 0.00 1011.6
20260904234657 91 152 4.0 9.0 0.00 0.00 0.00 1011.5
20260904234212 91 159 5.0 9.0 0.00 0.00 0.00 1011.5
20260904233700 91 124 7.0 11.0 0.00 0.00 0.00 1011.5
20260904233124 91 123 5.0 10.0 0.00 0.00 0.00 1011.6
20260904232700 91 170 7.0 16.0 0.00 0.00 0.00 1011.7
20260904232205 91 130 9.0 16.0 0.00 0.00 0.00 1011.6
20260904231638 91 134 6.0 10.0 0.00 0.00 0.00 1011.6
20260904230648 91 127 3.0 10.0 0.00 0.00 0.00 1011.7
20260904230124 91 71 5.0 10.0 0.00 0.00 0.00 1011.8
20260904225649 91 98 6.0 9.0 0.00 0.00 0.00 1011.7
20260904225123 91 140 5.0 13.0 0.00 0.00 0.00 1011.6
20260904224636 91 105 8.0 10.0 0.00 0.00 0.00 1011.6
20260904224209 91 138 6.0 11.0 0.00 0.00 0.00 1011.7
20260904223616 91 126 8.0 11.0 0.00 0.00 0.00 1011.9
20260904223129 91 106 6.0 10.0 0.00 0.00 0.00 1012.0
20260904222659 91 149 7.0 12.0 0.00 0.00 0.00 1012.1
20260904222125 91 128 7.0 12.0 0.00 0.00 0.00 1012.1
20260904221658 91 132 7.0 11.0 0.00 0.00 0.00 1012.1
20260904221219 91 122 6.0 12.0 0.00 0.00 0.00 1012.1
20260904220614 91 105 6.0 12.0 0.00 0.00 0.00 1012.1
20260904220143 91 154 6.0 11.0 0.00 0.00 0.00 1012.1
20260904215620 91 141 5.0 12.0 0.00 0.00 0.00 1012.1
20260904215124 90 109 7.0 12.0 0.00 0.00 0.00 1012.2
20260904214700 90 136 7.0 11.0 0.00 0.00 0.00 1012.3
20260904214147 90 117 6.0 11.0 0.00 0.00 0.00 1012.4
20260904213717 90 129 3.0 7.0 0.00 0.00 0.00 1012.5
20260904213124 90 175 3.0 8.0 0.00 0.00 0.00 1012.5
20260904212700 90 178 4.0 10.0 0.00 0.00 0.00 1012.7
20260904212129 89 184 5.0 11.0 0.00 0.00 0.00 1012.8
20260904211639 89 174 7.0 11.0 0.00 0.00 0.00 1012.9
20260904211213 90 146 4.0 11.0 0.00 0.00 0.00 1012.9
20260904210715 90 155 7.0 10.0 0.00 0.00 0.00 1013.0
20260904210228 90 103 4.0 9.0 0.00 0.00 0.00 1013.0
20260904205639 90 145 6.0 9.0 0.00 0.00 0.00 1013.0
20260904205153 90 136 2.0 9.0 0.00 0.00 0.00 1013.0
20260904204623 90 159 6.0 10.0 0.00 0.00 0.00 1013.0
20260904204155 90 129 4.0 10.0 0.00 0.00 0.00 1013.1
20260904203622 90 101 4.0 8.0 0.00 0.00 0.00 1013.1
20260904203158 90 103 5.0 8.0 0.00 0.00 0.00 1013.1
20260904202647 90 169 4.0 8.0 0.00 0.00 0.00 1013.1
20260904202117 90 159 5.0 8.0 0.00 0.00 0.00 1013.2
20260904201653 89 135 3.0 8.0 0.00 0.00 0.00 1013.2
20260904201126 89 166 6.0 8.0 0.00 0.00 0.00 1013.3
20260904200703 89 175 4.0 7.0 0.00 0.00 0.00 1013.3
20260904200130 88 134 4.0 9.0 0.00 0.00 0.00 1013.3
20260904195706 88 135 5.0 9.0 0.00 0.00 0.00 1013.4
20260904195134 88 134 4.0 7.0 0.00 0.00 0.00 1013.5
20260904194650 88 159 3.0 6.0 0.00 0.00 0.00 1013.5
20260904194116 88 192 3.0 7.0 0.00 0.00 0.00 1013.6
20260904193651 88 198 4.0 7.0 0.00 0.00 0.00 1013.7
20260904193118 88 122 3.0 9.0 0.00 0.00 0.00 1013.7
20260904192646 89 135 5.0 9.0 0.00 0.00 0.00 1013.7
20260904192223 89 131 5.0 12.0 0.00 0.00 0.00 1013.8
20260904191633 89 159 5.0 12.0 0.00 0.00 0.00 1013.8
20260904191207 89 147 5.0 10.0 0.00 0.00 0.00 1013.8
20260904190637 89 152 3.0 7.0 0.00 0.00 0.00 1013.9
20260904190207 88 117 3.0 9.0 0.00 0.00 0.00 1013.9
20260904185636 88 154 5.0 9.0 0.00 0.00 0.00 1014.1
20260904185209 88 144 4.0 7.0 0.00 0.00 0.00 1014.1
20260904184622 87 209 4.0 10.0 0.00 0.00 0.00 1014.2
20260904184132 87 124 6.0 10.0 0.00 0.00 0.00 1014.2
20260904183702 87 136 5.0 9.0 0.00 0.00 0.00 1014.2
20260904183140 87 119 4.0 9.0 0.00 0.00 0.00 1014.2
20260904182647 87 164 4.0 9.0 0.00 0.00 0.00 1014.2
20260904182202 87 170 4.0 8.0 0.00 0.00 0.00 1014.2
20260904181729 87 131 4.0 9.0 0.00 0.00 0.00 1014.3
20260904181114 87 155 4.0 9.0 0.00 0.00 0.00 1014.4
20260904180649 87 101 6.0 9.0 0.00 0.00 0.00 1014.5
20260904180156 87 88 4.0 10.0 0.00 0.00 0.00 1014.5
20260904175631 87 115 6.0 10.0 0.00 0.00 0.00 1014.4
20260904175158 87 120 7.0 10.0 0.00 0.00 0.00 1014.5
20260904174634 87 138 5.0 10.0 0.00 0.00 0.00 1014.6
20260904174202 87 121 7.0 10.0 0.00 0.00 0.00 1014.6
20260904173621 87 215 5.0 12.0 0.00 0.00 0.00 1014.6
20260904173150 86 168 5.0 15.0 0.00 0.00 0.00 1014.7
20260904172627 86 126 9.0 15.0 0.00 0.00 0.00 1014.7
20260904172155 86 125 6.0 10.0 0.00 0.00 0.00 1014.7
20260904171631 86 194 4.0 13.0 0.00 0.00 0.00 1014.8
20260904171159 86 148 7.0 10.0 0.00 0.00 0.00 1014.9
20260904170638 85 176 7.0 11.0 0.00 0.00 0.00 1014.9
20260904170145 85 200 7.0 11.0 0.00 0.00 0.00 1014.9
20260904165619 85 140 5.0 10.0 0.00 0.00 0.00 1014.9
20260904165155 85 157 5.0 8.0 0.00 0.00 0.00 1014.9
20260904164623 84 159 5.0 10.0 0.00 0.00 0.00 1014.9
20260904164132 84 69 5.0 10.0 0.00 0.00 0.00 1014.9
20260904163708 84 128 4.0 8.0 0.00 0.00 0.00 1014.9
20260904163133 84 166 4.0 9.0 0.00 0.00 0.00 1014.9
20260904162708 84 166 6.0 9.0 0.00 0.00 0.00 1015.0
20260904162138 83 180 4.0 6.0 0.00 0.00 0.00 1015.1
20260904161707 83 175 3.0 6.0 0.00 0.00 0.00 1015.2
20260904161147 83 196 1.0 6.0 0.00 0.00 0.00 1015.1
20260904160717 82 109 3.0 6.0 0.00 0.00 0.00 1015.2
20260904160130 82 106 3.0 7.0 0.00 0.00 0.00 1015.2
20260904155656 82 118 3.0 7.0 0.00 0.00 0.00 1015.2
20260904155129 82 105 4.0 7.0 0.00 0.00 0.00 1015.2
20260904154638 81 143 1.0 7.0 0.00 0.00 0.00 1015.3
20260904154209 81 145 3.0 7.0 0.00 0.00 0.00 1015.3
20260904153634 81 121 3.0 6.0 0.00 0.00 0.00 1015.2
20260904153202 81 109 2.0 7.0 0.00 0.00 0.00 1015.2
20260904152614 80 99 1.0 7.0 0.00 0.00 0.00 1015.1
20260904152136 80 133 2.0 7.0 0.00 0.00 0.00 1015.0
20260904151616 80 159 3.0 6.0 0.00 0.00 0.00 1014.9
20260904151144 80 149 3.0 6.0 0.00 0.00 0.00 1014.8
20260904150614 80 164 1.0 4.0 0.00 0.00 0.00 1014.9
20260904150128 80 160 1.0 5.0 0.00 0.00 0.00 1015.0
20260904145657 80 134 3.0 5.0 0.00 0.00 0.00 1015.0
20260904145132 80 95 1.0 5.0 0.00 0.00 0.00 1015.0
20260904144701 80 128 1.0 5.0 0.00 0.00 0.00 1015.1
20260904144114 80 160 1.0 6.0 0.00 0.00 0.00 1015.0
20260904143642 80 157 1.0 8.0 0.00 0.00 0.00 1014.9
20260904143123 79 147 4.0 8.0 0.00 0.00 0.00 1014.8
20260904142652 79 164 6.0 8.0 0.00 0.00 0.00 1014.7
20260904142202 79 171 5.0 8.0 0.00 0.00 0.00 1014.8
20260904141629 79 179 5.0 9.0 0.00 0.00 0.00 1014.8
20260904141132 79 160 5.0 9.0 0.00 0.00 0.00 1014.8
20260904140648 79 153 4.0 7.0 0.00 0.00 0.00 1014.7
20260904140217 79 167 4.0 8.0 0.00 0.00 0.00 1014.6
20260904135704 79 168 5.0 8.0 0.00 0.00 0.00 1014.7
20260904135138 79 175 4.0 7.0 0.00 0.00 0.00 1014.7
20260904134646 79 127 5.0 8.0 0.00 0.00 0.00 1014.5
20260904134221 79 129 5.0 8.0 0.00 0.00 0.00 1014.4
20260904133630 79 168 5.0 8.0 0.00 0.00 0.00 1014.4
20260904133159 79 144 3.0 8.0 0.00 0.00 0.00 1014.4
20260904132639 79 148 5.0 8.0 0.00 0.00 0.00 1014.4
20260904132205 79 129 6.0 8.0 0.00 0.00 0.00 1014.3
20260904131640 79 130 4.0 9.0 0.00 0.00 0.00 1014.3
20260904131205 79 135 5.0 9.0 0.00 0.00 0.00 1014.4
20260904130642 79 150 4.0 6.0 0.00 0.00 0.00 1014.3
20260904130206 79 110 4.0 8.0 0.00 0.00 0.00 1014.2
20260904125643 79 137 5.0 8.0 0.00 0.00 0.00 1014.2
20260904125212 79 126 3.0 7.0 0.00 0.00 0.00 1014.1
20260904124632 79 113 4.0 6.0 0.00 0.00 0.00 1014.1
20260904124201 79 110 3.0 6.0 0.00 0.00 0.00 1013.9
20260904123630 79 100 2.0 7.0 0.00 0.00 0.00 1013.7
20260904123203 79 157 5.0 7.0 0.00 0.00 0.00 1013.8
20260904122632 79 142 4.0 7.0 0.00 0.00 0.00 1013.7
20260904122121 79 124 3.0 5.0 0.00 0.00 0.00 1013.7
20260904121658 79 151 3.0 6.0 0.00 0.00 0.00 1013.8
20260904121204 79 131 3.0 7.0 0.00 0.00 0.00 1013.7
20260904120641 78 146 5.0 7.0 0.00 0.00 0.00 1013.7
20260904120206 78 154 4.0 6.0 0.00 0.00 0.00 1013.5
20260904115647 78 180 3.0 7.0 0.00 0.00 0.00 1013.4
20260904115155 78 155 2.0 7.0 0.00 0.00 0.00 1013.3
20260904114631 78 140 3.0 7.0 0.00 0.00 0.00 1013.3
20260904114200 78 136 2.0 5.0 0.00 0.00 0.00 1013.2
20260904113630 78 129 2.0 5.0 0.00 0.00 0.00 1013.2
20260904113146 78 130 2.0 6.0 0.00 0.00 0.00 1013.1
20260904112616 78 98 3.0 6.0 0.00 0.00 0.00 1013.1
20260904112141 78 122 3.0 6.0 0.00 0.00 0.00 1013.1
20260904111718 78 152 3.0 7.0 0.00 0.00 0.00 1013.1
20260904111128 78 146 5.0 7.0 0.00 0.00 0.00 1013.0
20260904110705 78 150 4.0 5.0 0.00 0.00 0.00 1013.1
20260904110114 78 160 3.0 4.0 0.00 0.00 0.00 1013.1
20260904105651 78 120 2.0 3.0 0.00 0.00 0.00 1013.2
20260904105121 78 100 2.0 5.0 0.00 0.00 0.00 1013.1
20260904104650 78 123 2.0 4.0 0.00 0.00 0.00 1013.2
20260904104145 78 101 1.0 4.0 0.00 0.00 0.00 1013.1
20260904103614 78 167 2.0 5.0 0.00 0.00 0.00 1013.0
20260904103142 78 151 2.0 5.0 0.00 0.00 0.00 1013.0
20260904102623 78 150 2.0 5.0 0.00 0.00 0.00 1013.0
20260904102152 78 138 2.0 5.0 0.00 0.00 0.00 1013.0
20260904101628 78 166 2.0 5.0 0.00 0.00 0.00 1012.9
20260904101157 79 155 3.0 5.0 0.00 0.00 0.00 1012.8
20260904100634 79 162 2.0 5.0 0.00 0.00 0.00 1012.9
20260904100201 79 165 3.0 6.0 0.00 0.00 0.00 1012.9
20260904095717 79 176 2.0 6.0 0.00 0.00 0.00 1012.8
20260904095157 79 181 3.0 6.0 0.00 0.00 0.00 1012.8
20260904094644 79 146 2.0 6.0 0.00 0.00 0.00 1012.8
20260904094118 79 153 3.0 6.0 0.00 0.00 0.00 1012.8
20260904093625 79 151 4.0 6.0 0.00 0.00 0.00 1012.9
20260904093202 79 131 3.0 7.0 0.00 0.00 0.00 1012.8
20260904092732 79 142 4.0 8.0 0.00 0.00 0.00 1012.7
20260904092149 79 163 2.0 7.0 0.00 0.00 0.00 1012.8
20260904091618 79 146 4.0 8.0 0.00 0.00 0.00 1012.8
20260904091154 79 173 6.0 8.0 0.00 0.00 0.00 1012.8
20260904090622 79 169 4.0 7.0 0.00 0.00 0.00 1012.8
20260904090151 79 149 4.0 8.0 0.00 0.00 0.00 1012.8
20260904085625 79 166 4.0 8.0 0.00 0.00 0.00 1012.8
20260904085131 79 159 3.0 8.0 0.00 0.00 0.00 1012.7
20260904084704 79 158 4.0 9.0 0.00 0.00 0.00 1012.8
20260904084202 79 167 4.0 9.0 0.00 0.00 0.00 1012.7
20260904083632 79 168 4.0 8.0 0.00 0.00 0.00 1012.7
20260904083206 79 143 5.0 9.0 0.00 0.00 0.00 1012.7
20260904082614 79 175 5.0 10.0 0.00 0.00 0.00 1012.7
20260904082147 79 166 5.0 8.0 0.00 0.00 0.00 1012.8
20260904081657 79 159 3.0 6.0 0.00 0.00 0.00 1012.8
20260904081130 79 159 2.0 5.0 0.00 0.00 0.00 1013.0
20260904080655 79 148 4.0 7.0 0.00 0.00 0.00 1013.0
20260904080125 79 208 2.0 7.0 0.00 0.00 0.00 1013.0
20260904075653 79 141 0.0 6.0 0.00 0.00 0.00 1013.0
20260904075129 79 161 3.0 6.0 0.00 0.00 0.00 1013.0
20260904074634 79 171 4.0 7.0 0.00 0.00 0.00 1013.1
20260904074157 80 152 3.0 7.0 0.00 0.00 0.00 1013.2
20260904073632 80 139 3.0 7.0 0.00 0.00 0.00 1013.2
20260904073149 80 148 4.0 7.0 0.00 0.00 0.00 1013.2
20260904072615 80 163 2.0 6.0 0.00 0.00 0.00 1013.2
20260904072150 80 138 4.0 8.0 0.00 0.00 0.00 1013.2
20260904071619 80 153 4.0 8.0 0.00 0.00 0.00 1013.3
20260904071146 80 145 5.0 9.0 0.00 0.00 0.00 1013.3
20260904070650 80 135 6.0 9.0 0.00 0.00 0.00 1013.4
20260904070147 80 149 6.0 9.0 0.00 0.00 0.00 1013.5
20260904065626 80 151 4.0 8.0 0.00 0.00 0.00 1013.4
20260904065135 80 158 4.0 7.0 0.00 0.00 0.00 1013.5
20260904064617 80 178 3.0 8.0 0.00 0.00 0.00 1013.6
20260904064144 80 130 4.0 8.0 0.00 0.00 0.00 1013.6
20260904063625 80 112 4.0 8.0 0.00 0.00 0.00 1013.6
20260904063134 80 165 5.0 8.0 0.00 0.00 0.00 1013.6
20260904062615 80 146 5.0 8.0 0.00 0.00 0.00 1013.5
20260904062129 80 143 6.0 8.0 0.00 0.00 0.00 1013.6
20260904061634 80 146 4.0 9.0 0.00 0.00 0.00 1013.5
20260904061113 80 151 6.0 10.0 0.00 0.00 0.00 1013.6
20260904060642 81 166 6.0 10.0 0.00 0.00 0.00 1013.5
20260904060123 81 132 6.0 10.0 0.00 0.00 0.00 1013.6
20260904055652 81 139 6.0 10.0 0.00 0.00 0.00 1013.6
20260904055118 81 158 5.0 10.0 0.00 0.00 0.00 1013.4
20260904054620 81 169 6.0 9.0 0.00 0.00 0.00 1013.5
20260904054130 81 156 5.0 12.0 0.00 0.00 0.00 1013.4
20260904053632 81 153 5.0 14.0 0.00 0.00 0.00 1013.4
20260904053136 81 161 8.0 14.0 0.00 0.00 0.00 1013.4
20260904052637 82 159 4.0 10.0 0.00 0.00 0.00 1013.4
20260904052124 82 152 5.0 12.0 0.00 0.00 0.00 1013.3
20260904051626 82 164 7.0 13.0 0.00 0.00 0.00 1013.3
20260904051129 82 159 7.0 13.0 0.00 0.00 0.00 1013.1
20260904050637 82 163 7.0 12.0 0.00 0.00 0.00 1013.0
20260904050115 82 137 9.0 12.0 0.00 0.00 0.00 1013.1
20260904045650 82 155 5.0 10.0 0.00 0.00 0.00 1013.2
20260904045127 82 151 6.0 9.0 0.00 0.00 0.00 1013.2
20260904044653 83 160 5.0 9.0 0.00 0.00 0.00 1013.2
20260904044143 83 135 4.0 12.0 0.00 0.00 0.00 1013.1